User: anonymous   Login
Location: Unspecified
(0.0000°N, 0.0000°E)
Time: 18:51:06
(UTC+00:00)
Language:

Vanguard 2 - Orbit

View from above orbital plane
View from above orbital plane
View from above satellite
View from above satellite

Ground track
Ground track

The orbit data is extracted from the following two-line orbital elements,

1 00011U 59001A   21212.58099821 -.00000066  00000-0 -30918-4 0  9996
2 00011  32.8688 319.1906 1468102  41.3480 328.9406 11.85801340323551
Epoch (UTC): 31 July 2021 13:56:38
Eccentricity: 0.1468102
inclination: 32.8688°
perigee height: 552 km
apogee height: 2937 km
right ascension of ascending node: 319.1906°
argument of perigee: 41.3480°
revolutions per day: 11.85801340
mean anomaly at epoch: 328.9406°
orbit number at epoch: 32355

The dashed part of the orbit path shows where the satellite is in the earth's shadow,  

DLR